Time,TemperatureF,DewpointF,PressureIn,WindDirection,WindDirectionDegrees,WindSpeedMPH,WindSpeedGustMPH,Humidity,HourlyPrecipIn,Conditions,Clouds,dailyrainin,SoftwareType,DateUTC
2013-02-25 00:01:00,23.1,19.8,30.19,ESE,109,0.0,0.0,87,0.00,,,0.00,Wunderground v.1.15,2013-02-25 05:01:00,
2013-02-25 00:02:00,23.1,19.8,30.19,ESE,109,0.0,0.0,87,0.00,,,0.00,Wunderground v.1.15,2013-02-25 05:02:00,
2013-02-25 00:04:00,23.1,19.8,30.19,ESE,109,0.0,0.0,87,0.00,,,0.00,Wunderground v.1.15,2013-02-25 05:04:00,
2013-02-25 00:05:00,23.1,19.8,30.19,ESE,109,0.0,0.0,87,0.00,,,0.00,Wunderground v.1.15,2013-02-25 05:05:00,
2013-02-25 00:11:00,22.9,19.9,30.20,ESE,109,0.0,0.0,88,0.00,,,0.00,Wunderground v.1.15,2013-02-25 05:11:00,
2013-02-25 00:16:00,22.7,19.7,30.20,ESE,109,0.0,0.0,88,0.00,,,0.00,Wunderground v.1.15,2013-02-25 05:16:00,
2013-02-25 00:21:00,22.5,19.5,30.20,ESE,109,0.0,0.0,88,0.00,,,0.00,Wunderground v.1.15,2013-02-25 05:21:00,
2013-02-25 00:26:00,22.3,19.6,30.20,ESE,109,0.0,0.0,89,0.00,,,0.00,Wunderground v.1.15,2013-02-25 05:26:00,
2013-02-25 00:31:00,22.1,19.4,30.20,ESE,109,0.0,0.0,89,0.00,,,0.00,Wunderground v.1.15,2013-02-25 05:31:00,
2013-02-25 00:36:00,22.1,19.4,30.20,ESE,109,0.0,0.0,89,0.00,,,0.00,Wunderground v.1.15,2013-02-25 05:36:00,
2013-02-25 00:41:00,22.0,19.3,30.20,ESE,109,0.0,0.0,89,0.00,,,0.00,Wunderground v.1.15,2013-02-25 05:41:00,
2013-02-25 00:47:00,21.8,19.3,30.20,ESE,109,0.0,0.0,90,0.00,,,0.00,Wunderground v.1.15,2013-02-25 05:47:00,
2013-02-25 00:52:00,21.8,19.3,30.20,ESE,109,0.0,0.0,90,0.00,,,0.00,Wunderground v.1.15,2013-02-25 05:52:00,
2013-02-25 00:57:00,21.7,19.2,30.20,ESE,109,0.0,0.0,90,0.00,,,0.00,Wunderground v.1.15,2013-02-25 05:57:00,
2013-02-25 01:02:00,21.6,19.4,30.20,ESE,109,0.0,0.0,91,0.00,,,0.00,Wunderground v.1.15,2013-02-25 06:02:00,
2013-02-25 01:07:00,21.6,19.1,30.20,ESE,109,0.0,0.0,90,0.00,,,0.00,Wunderground v.1.15,2013-02-25 06:07:00,
2013-02-25 01:13:00,21.6,19.4,30.21,ESE,109,0.0,0.0,91,0.00,,,0.00,Wunderground v.1.15,2013-02-25 06:13:00,
2013-02-25 01:18:00,21.6,19.4,30.21,ESE,109,0.0,0.0,91,0.00,,,0.00,Wunderground v.1.15,2013-02-25 06:18:00,
2013-02-25 01:23:00,21.6,19.4,30.21,ESE,109,0.0,0.0,91,0.00,,,0.00,Wunderground v.1.15,2013-02-25 06:23:00,
2013-02-25 01:28:00,21.7,19.5,30.21,ESE,109,0.0,0.0,91,0.00,,,0.00,Wunderground v.1.15,2013-02-25 06:28:00,
2013-02-25 01:33:00,21.7,19.7,30.21,ESE,109,0.0,0.0,92,0.00,,,0.00,Wunderground v.1.15,2013-02-25 06:33:00,
2013-02-25 01:38:00,21.8,19.8,30.21,ESE,109,0.0,0.0,92,0.00,,,0.00,Wunderground v.1.15,2013-02-25 06:38:00,
2013-02-25 01:43:00,22.0,20.0,30.21,ESE,109,0.0,0.0,92,0.00,,,0.00,Wunderground v.1.15,2013-02-25 06:43:00,
2013-02-25 01:48:00,22.1,20.1,30.21,ESE,109,0.0,0.0,92,0.00,,,0.00,Wunderground v.1.15,2013-02-25 06:48:00,
2013-02-25 01:53:00,22.2,20.5,30.21,ESE,109,0.0,0.0,93,0.00,,,0.00,Wunderground v.1.15,2013-02-25 06:53:00,
2013-02-25 01:58:00,22.5,20.8,30.21,ESE,109,0.0,0.0,93,0.00,,,0.00,Wunderground v.1.15,2013-02-25 06:58:00,
2013-02-25 02:04:00,22.6,20.9,30.21,ESE,109,0.0,0.0,93,0.00,,,0.00,Wunderground v.1.15,2013-02-25 07:04:00,
2013-02-25 02:09:00,23.0,21.3,30.21,ESE,109,0.0,0.0,93,0.00,,,0.00,Wunderground v.1.15,2013-02-25 07:09:00,
2013-02-25 02:15:00,23.3,21.6,30.21,ESE,109,0.0,0.0,93,0.00,,,0.00,Wunderground v.1.15,2013-02-25 07:15:00,
2013-02-25 02:20:00,23.4,21.7,30.21,ESE,109,0.0,0.0,93,0.00,,,0.00,Wunderground v.1.15,2013-02-25 07:20:00,
2013-02-25 02:25:00,23.5,21.8,30.21,ESE,109,0.0,0.0,93,0.00,,,0.00,Wunderground v.1.15,2013-02-25 07:25:00,
2013-02-25 02:30:00,23.7,22.0,30.20,ESE,109,0.0,0.0,93,0.00,,,0.00,Wunderground v.1.15,2013-02-25 07:30:00,
2013-02-25 02:35:00,23.8,22.1,30.20,ESE,109,0.0,0.0,93,0.00,,,0.00,Wunderground v.1.15,2013-02-25 07:35:00,
2013-02-25 02:40:00,23.9,22.2,30.20,ESE,109,0.0,0.0,93,0.00,,,0.00,Wunderground v.1.15,2013-02-25 07:40:00,
2013-02-25 02:46:00,24.0,22.5,30.20,ESE,109,0.0,0.0,94,0.00,,,0.00,Wunderground v.1.15,2013-02-25 07:46:00,
2013-02-25 02:51:00,24.1,22.4,30.20,ESE,109,0.0,0.0,93,0.00,,,0.00,Wunderground v.1.15,2013-02-25 07:51:00,
2013-02-25 02:56:00,24.2,22.5,30.20,ESE,109,0.0,0.0,93,0.00,,,0.00,Wunderground v.1.15,2013-02-25 07:56:00,
2013-02-25 03:01:00,24.3,22.6,30.20,ESE,109,0.0,0.0,93,0.00,,,0.00,Wunderground v.1.15,2013-02-25 08:01:00,
2013-02-25 03:06:00,24.4,22.7,30.20,ESE,109,0.0,0.0,93,0.00,,,0.00,Wunderground v.1.15,2013-02-25 08:06:00,
2013-02-25 03:11:00,24.5,22.8,30.20,ESE,109,0.0,0.0,93,0.00,,,0.00,Wunderground v.1.15,2013-02-25 08:11:00,
2013-02-25 03:16:00,24.6,22.9,30.20,ESE,109,0.0,0.0,93,0.00,,,0.00,Wunderground v.1.15,2013-02-25 08:16:00,
2013-02-25 03:22:00,24.8,23.1,30.20,ESE,109,0.0,0.0,93,0.00,,,0.00,Wunderground v.1.15,2013-02-25 08:22:00,
2013-02-25 03:27:00,24.9,23.2,30.20,ESE,109,0.0,0.0,93,0.00,,,0.00,Wunderground v.1.15,2013-02-25 08:27:00,
2013-02-25 03:32:00,24.9,23.2,30.20,ESE,109,0.0,0.0,93,0.00,,,0.00,Wunderground v.1.15,2013-02-25 08:32:00,
2013-02-25 03:37:00,25.0,23.3,30.20,ESE,109,0.0,0.0,93,0.00,,,0.00,Wunderground v.1.15,2013-02-25 08:37:00,
2013-02-25 03:42:00,25.1,23.4,30.20,ESE,109,0.0,0.0,93,0.00,,,0.00,Wunderground v.1.15,2013-02-25 08:42:00,
2013-02-25 03:47:00,25.2,23.5,30.20,ESE,109,0.0,0.0,93,0.00,,,0.00,Wunderground v.1.15,2013-02-25 08:47:00,
2013-02-25 03:52:00,25.2,23.5,30.20,ESE,109,0.0,0.0,93,0.00,,,0.00,Wunderground v.1.15,2013-02-25 08:52:00,
2013-02-25 03:58:00,25.3,23.6,30.20,ESE,109,0.0,0.0,93,0.00,,,0.00,Wunderground v.1.15,2013-02-25 08:58:00,
2013-02-25 04:03:00,25.4,23.7,30.20,ESE,109,0.0,0.0,93,0.00,,,0.00,Wunderground v.1.15,2013-02-25 09:03:00,
2013-02-25 04:09:00,25.5,23.8,30.20,ESE,109,0.0,0.0,93,0.00,,,0.00,Wunderground v.1.15,2013-02-25 09:09:00,
2013-02-25 04:14:00,25.5,23.8,30.20,ESE,109,0.0,0.0,93,0.00,,,0.00,Wunderground v.1.15,2013-02-25 09:14:00,
2013-02-25 04:19:00,25.6,23.9,30.20,ESE,109,0.0,0.0,93,0.00,,,0.00,Wunderground v.1.15,2013-02-25 09:19:00,
2013-02-25 04:24:00,25.6,23.6,30.20,ESE,109,0.0,0.0,92,0.00,,,0.00,Wunderground v.1.15,2013-02-25 09:24:00,
2013-02-25 04:29:00,25.6,23.6,30.19,ESE,109,0.0,0.0,92,0.00,,,0.00,Wunderground v.1.15,2013-02-25 09:29:00,
2013-02-25 04:34:00,25.7,23.7,30.19,ESE,109,0.0,0.0,92,0.00,,,0.00,Wunderground v.1.15,2013-02-25 09:34:00,
2013-02-25 04:39:00,25.7,23.7,30.19,ESE,109,0.0,0.0,92,0.00,,,0.00,Wunderground v.1.15,2013-02-25 09:39:00,
2013-02-25 04:44:00,25.8,23.8,30.19,ESE,109,0.0,0.0,92,0.00,,,0.00,Wunderground v.1.15,2013-02-25 09:44:00,
2013-02-25 04:49:00,25.8,23.8,30.20,ESE,109,0.0,0.0,92,0.00,,,0.00,Wunderground v.1.15,2013-02-25 09:49:00,
2013-02-25 04:54:00,25.9,23.9,30.20,ESE,109,0.0,0.0,92,0.00,,,0.00,Wunderground v.1.15,2013-02-25 09:54:00,
2013-02-25 05:00:00,26.0,24.0,30.21,ESE,109,0.0,0.0,92,0.00,,,0.00,Wunderground v.1.15,2013-02-25 10:00:00,
2013-02-25 05:06:00,26.0,24.0,30.21,ESE,109,0.0,0.0,92,0.00,,,0.00,Wunderground v.1.15,2013-02-25 10:06:00,
2013-02-25 05:11:00,26.0,24.0,30.21,ESE,109,0.0,0.0,92,0.00,,,0.00,Wunderground v.1.15,2013-02-25 10:11:00,
2013-02-25 05:17:00,26.0,23.7,30.22,ESE,109,0.0,0.0,91,0.00,,,0.00,Wunderground v.1.15,2013-02-25 10:17:00,
2013-02-25 05:22:00,26.1,23.8,30.22,ESE,109,0.0,0.0,91,0.00,,,0.00,Wunderground v.1.15,2013-02-25 10:22:00,
2013-02-25 05:28:00,26.1,23.8,30.22,ESE,109,0.0,0.0,91,0.00,,,0.00,Wunderground v.1.15,2013-02-25 10:28:00,
2013-02-25 05:33:00,26.1,23.8,30.23,ESE,109,0.0,0.0,91,0.00,,,0.00,Wunderground v.1.15,2013-02-25 10:33:00,
2013-02-25 05:38:00,26.2,23.9,30.23,ESE,109,0.0,0.0,91,0.00,,,0.00,Wunderground v.1.15,2013-02-25 10:38:00,
2013-02-25 05:43:00,26.2,23.9,30.23,ESE,109,0.0,0.0,91,0.00,,,0.00,Wunderground v.1.15,2013-02-25 10:43:00,
2013-02-25 05:48:00,26.2,23.9,30.23,ESE,109,0.0,0.0,91,0.00,,,0.00,Wunderground v.1.15,2013-02-25 10:48:00,
2013-02-25 05:53:00,26.2,23.9,30.23,ESE,109,0.0,0.0,91,0.00,,,0.00,Wunderground v.1.15,2013-02-25 10:53:00,
2013-02-25 05:58:00,26.2,23.9,30.23,ESE,109,0.0,0.0,91,0.00,,,0.00,Wunderground v.1.15,2013-02-25 10:58:00,
2013-02-25 06:04:00,26.1,23.8,30.23,ESE,109,0.0,0.0,91,0.00,,,0.00,Wunderground v.1.15,2013-02-25 11:04:00,
2013-02-25 06:09:00,26.1,23.8,30.23,ESE,109,0.0,0.0,91,0.00,,,0.00,Wunderground v.1.15,2013-02-25 11:09:00,
2013-02-25 06:14:00,25.9,23.6,30.23,ESE,109,0.0,0.0,91,0.00,,,0.00,Wunderground v.1.15,2013-02-25 11:14:00,
2013-02-25 06:19:00,25.9,23.6,30.24,ESE,109,0.0,0.0,91,0.00,,,0.00,Wunderground v.1.15,2013-02-25 11:19:00,
2013-02-25 06:24:00,25.8,23.5,30.24,ESE,109,0.0,0.0,91,0.00,,,0.00,Wunderground v.1.15,2013-02-25 11:24:00,
2013-02-25 06:29:00,25.7,23.4,30.23,ESE,109,0.0,0.0,91,0.00,,,0.00,Wunderground v.1.15,2013-02-25 11:29:00,
2013-02-25 06:35:00,25.5,23.2,30.24,ESE,109,0.0,0.0,91,0.00,,,0.00,Wunderground v.1.15,2013-02-25 11:35:00,
2013-02-25 06:40:00,25.1,22.6,30.23,ESE,109,0.0,0.0,90,0.00,,,0.00,Wunderground v.1.15,2013-02-25 11:40:00,
2013-02-25 06:45:00,24.7,22.2,30.24,ESE,109,0.0,0.0,90,0.00,,,0.00,Wunderground v.1.15,2013-02-25 11:45:00,
2013-02-25 06:50:00,24.1,21.6,30.24,ESE,109,0.0,0.0,90,0.00,,,0.00,Wunderground v.1.15,2013-02-25 11:50:00,
2013-02-25 06:55:00,23.7,21.2,30.24,ESE,109,0.0,0.0,90,0.00,,,0.00,Wunderground v.1.15,2013-02-25 11:55:00,
2013-02-25 07:01:00,23.4,20.9,30.24,ESE,109,0.0,0.0,90,0.00,,,0.00,Wunderground v.1.15,2013-02-25 12:01:00,
2013-02-25 07:06:00,22.8,20.0,30.25,ESE,109,0.0,0.0,89,0.00,,,0.00,Wunderground v.1.15,2013-02-25 12:06:00,
2013-02-25 07:11:00,22.5,20.0,30.24,ESE,109,0.0,0.0,90,0.00,,,0.00,Wunderground v.1.15,2013-02-25 12:11:00,
2013-02-25 07:16:00,22.1,19.6,30.25,ESE,109,0.0,0.0,90,0.00,,,0.00,Wunderground v.1.15,2013-02-25 12:16:00,
2013-02-25 07:21:00,21.7,19.2,30.25,ESE,109,0.0,0.0,90,0.00,,,0.00,Wunderground v.1.15,2013-02-25 12:21:00,
2013-02-25 07:26:00,21.6,19.4,30.25,ESE,109,0.0,0.0,91,0.00,,,0.00,Wunderground v.1.15,2013-02-25 12:26:00,
2013-02-25 07:32:00,21.5,19.3,30.25,ESE,109,0.0,0.0,91,0.00,,,0.00,Wunderground v.1.15,2013-02-25 12:32:00,
2013-02-25 07:38:00,21.4,19.2,30.25,ESE,109,0.0,0.0,91,0.00,,,0.00,Wunderground v.1.15,2013-02-25 12:38:00,
2013-02-25 07:43:00,21.4,19.2,30.25,ESE,109,0.0,1.0,91,0.00,,,0.00,Wunderground v.1.15,2013-02-25 12:43:00,
2013-02-25 07:51:00,21.4,19.4,30.25,ESE,109,0.0,0.0,92,0.00,,,0.00,Wunderground v.1.15,2013-02-25 12:51:00,
2013-02-25 08:01:00,21.7,20.0,30.26,ESE,109,0.0,0.0,93,0.00,,,0.00,Wunderground v.1.15,2013-02-25 13:01:00,
2013-02-25 08:06:00,22.2,20.5,30.27,ESE,109,0.0,0.0,93,0.00,,,0.00,Wunderground v.1.15,2013-02-25 13:06:00,
2013-02-25 08:11:00,22.9,21.4,30.27,ESE,109,0.0,0.0,94,0.00,,,0.00,Wunderground v.1.15,2013-02-25 13:11:00,
2013-02-25 08:16:00,23.8,22.3,30.27,ESE,109,0.0,0.0,94,0.00,,,0.00,Wunderground v.1.15,2013-02-25 13:16:00,
2013-02-25 08:22:00,25.2,23.7,30.26,ESE,109,0.0,0.0,94,0.00,,,0.00,Wunderground v.1.15,2013-02-25 13:22:00,
2013-02-25 08:27:00,26.4,24.4,30.26,ESE,109,0.0,0.0,92,0.00,,,0.00,Wunderground v.1.15,2013-02-25 13:27:00,
2013-02-25 08:33:00,28.0,25.7,30.26,ESE,109,0.0,2.0,91,0.00,,,0.00,Wunderground v.1.15,2013-02-25 13:33:00,
2013-02-25 08:38:00,29.0,25.9,30.26,ESE,109,0.0,2.0,88,0.00,,,0.00,Wunderground v.1.15,2013-02-25 13:38:00,
2013-02-25 08:44:00,29.4,25.2,30.26,ESE,109,0.0,2.0,84,0.00,,,0.00,Wunderground v.1.15,2013-02-25 13:44:00,
2013-02-25 08:49:00,29.7,25.2,30.26,ESE,109,0.0,2.0,83,0.00,,,0.00,Wunderground v.1.15,2013-02-25 13:49:00,
2013-02-25 08:55:00,30.1,25.3,30.26,ESE,109,0.0,2.0,82,0.00,,,0.00,Wunderground v.1.15,2013-02-25 13:55:00,
2013-02-25 09:00:00,30.9,25.8,30.26,ESE,109,0.0,0.0,81,0.00,,,0.00,Wunderground v.1.15,2013-02-25 14:00:00,
2013-02-25 09:06:00,30.8,25.7,30.27,ESE,109,0.0,0.0,81,0.00,,,0.00,Wunderground v.1.15,2013-02-25 14:06:00,
2013-02-25 09:12:00,31.7,26.2,30.27,ESE,109,0.0,3.0,80,0.00,,,0.00,Wunderground v.1.15,2013-02-25 14:12:00,
2013-02-25 09:18:00,32.1,26.3,30.27,ESE,109,0.0,3.0,79,0.00,,,0.00,Wunderground v.1.15,2013-02-25 14:18:00,
2013-02-25 09:24:00,32.2,26.1,30.28,SSE,154,1.0,2.0,78,0.00,,,0.00,Wunderground v.1.15,2013-02-25 14:24:00,
2013-02-25 09:30:00,32.9,27.1,30.28,SE,134,2.0,2.0,79,0.00,,,0.00,Wunderground v.1.15,2013-02-25 14:30:00,
2013-02-25 09:35:00,33.5,27.4,30.27,SSE,155,1.0,2.0,78,0.00,,,0.00,Wunderground v.1.15,2013-02-25 14:35:00,
2013-02-25 09:40:00,32.9,26.2,30.27,East,83,2.0,4.0,76,0.00,,,0.00,Wunderground v.1.15,2013-02-25 14:40:00,
2013-02-25 09:45:00,33.1,26.4,30.27,NNW,342,2.0,4.0,76,0.00,,,0.00,Wunderground v.1.15,2013-02-25 14:45:00,
2013-02-25 09:51:00,33.4,25.7,30.26,NNW,342,3.0,5.0,73,0.00,,,0.00,Wunderground v.1.15,2013-02-25 14:51:00,
2013-02-25 09:56:00,33.5,25.8,30.26,NNE,25,4.0,5.0,73,0.00,,,0.00,Wunderground v.1.15,2013-02-25 14:56:00,
2013-02-25 10:02:00,34.0,25.6,30.25,SE,137,2.0,4.0,71,0.00,,,0.00,Wunderground v.1.15,2013-02-25 15:02:00,
2013-02-25 10:08:00,33.7,25.6,30.26,SW,221,2.0,4.0,72,0.00,,,0.00,Wunderground v.1.15,2013-02-25 15:08:00,
2013-02-25 10:14:00,33.9,26.2,30.25,NW,309,3.0,4.0,73,0.00,,,0.00,Wunderground v.1.15,2013-02-25 15:14:00,
2013-02-25 10:19:00,34.3,27.2,30.25,ENE,57,3.0,5.0,75,0.00,,,0.00,Wunderground v.1.15,2013-02-25 15:19:00,
2013-02-25 10:25:00,34.7,26.6,30.26,East,88,2.0,5.0,72,0.00,,,0.00,Wunderground v.1.15,2013-02-25 15:25:00,
2013-02-25 10:30:00,34.7,26.3,30.26,NE,43,2.0,2.0,71,0.00,,,0.00,Wunderground v.1.15,2013-02-25 15:30:00,
2013-02-25 10:35:00,35.3,26.8,30.26,ENE,70,2.0,4.0,71,0.00,,,0.00,Wunderground v.1.15,2013-02-25 15:35:00,
2013-02-25 10:40:00,35.1,26.3,30.26,ESE,110,2.0,4.0,70,0.00,,,0.00,Wunderground v.1.15,2013-02-25 15:40:00,
2013-02-25 10:45:00,35.8,27.3,30.25,NE,40,2.0,4.0,71,0.00,,,0.00,Wunderground v.1.15,2013-02-25 15:45:00,
2013-02-25 10:50:00,35.9,27.1,30.25,NW,325,2.0,4.0,70,0.00,,,0.00,Wunderground v.1.15,2013-02-25 15:50:00,
2013-02-25 10:56:00,35.9,26.7,30.25,NE,34,2.0,2.0,69,0.00,,,0.00,Wunderground v.1.15,2013-02-25 15:56:00,
2013-02-25 11:02:00,35.7,26.9,30.25,West,266,2.0,3.0,70,0.00,,,0.00,Wunderground v.1.15,2013-02-25 16:02:00,
2013-02-25 11:07:00,36.3,26.7,30.25,North,350,3.0,3.0,68,0.00,,,0.00,Wunderground v.1.15,2013-02-25 16:07:00,
2013-02-25 11:12:00,35.9,26.0,30.25,North,355,3.0,5.0,67,0.00,,,0.00,Wunderground v.1.15,2013-02-25 16:12:00,
2013-02-25 11:17:00,35.6,26.4,30.25,NW,313,3.0,5.0,69,0.00,,,0.00,Wunderground v.1.15,2013-02-25 16:17:00,
2013-02-25 11:22:00,35.6,26.4,30.25,NE,34,3.0,4.0,69,0.00,,,0.00,Wunderground v.1.15,2013-02-25 16:22:00,
2013-02-25 11:27:00,35.6,26.8,30.24,North,355,3.0,4.0,70,0.00,,,0.00,Wunderground v.1.15,2013-02-25 16:27:00,
2013-02-25 11:32:00,36.2,27.4,30.25,South,185,3.0,7.0,70,0.00,,,0.00,Wunderground v.1.15,2013-02-25 16:32:00,
2013-02-25 11:37:00,36.5,27.6,30.25,East,91,2.0,7.0,70,0.00,,,0.00,Wunderground v.1.15,2013-02-25 16:37:00,
2013-02-25 11:42:00,36.8,27.2,30.25,South,178,3.0,10.0,68,0.00,,,0.00,Wunderground v.1.15,2013-02-25 16:42:00,
2013-02-25 11:48:00,36.9,27.7,30.25,South,173,4.0,6.0,69,0.00,,,0.00,Wunderground v.1.15,2013-02-25 16:48:00,
2013-02-25 11:54:00,37.1,26.4,30.25,NNW,344,4.0,6.0,65,0.00,,,0.00,Wunderground v.1.15,2013-02-25 16:54:00,
2013-02-25 11:59:00,36.6,27.0,30.25,NNW,338,4.0,5.0,68,0.00,,,0.00,Wunderground v.1.15,2013-02-25 16:59:00,
2013-02-25 12:04:00,37.3,27.3,30.25,SSE,162,3.0,6.0,67,0.00,,,0.00,Wunderground v.1.15,2013-02-25 17:04:00,
2013-02-25 12:09:00,36.8,26.5,30.24,NNW,337,4.0,6.0,66,0.00,,,0.00,Wunderground v.1.15,2013-02-25 17:09:00,
2013-02-25 12:15:00,37.7,27.7,30.24,NW,322,3.0,4.0,67,0.00,,,0.00,Wunderground v.1.15,2013-02-25 17:15:00,
2013-02-25 12:20:00,36.9,26.2,30.24,North,360,3.0,3.0,65,0.00,,,0.00,Wunderground v.1.15,2013-02-25 17:20:00,
2013-02-25 12:25:00,37.2,26.9,30.24,NW,312,3.0,5.0,66,0.00,,,0.00,Wunderground v.1.15,2013-02-25 17:25:00,
2013-02-25 12:31:00,37.8,26.7,30.23,North,349,4.0,8.0,64,0.00,,,0.00,Wunderground v.1.15,2013-02-25 17:31:00,
2013-02-25 12:37:00,37.6,26.5,30.22,NNE,18,4.0,8.0,64,0.00,,,0.00,Wunderground v.1.15,2013-02-25 17:37:00,
2013-02-25 12:43:00,38.3,27.6,30.22,SW,234,3.0,8.0,65,0.00,,,0.00,Wunderground v.1.15,2013-02-25 17:43:00,
2013-02-25 12:49:00,38.6,27.1,30.22,WNW,284,3.0,8.0,63,0.00,,,0.00,Wunderground v.1.15,2013-02-25 17:49:00,
2013-02-25 12:55:00,38.5,26.6,30.22,NNW,335,5.0,8.0,62,0.00,,,0.00,Wunderground v.1.15,2013-02-25 17:55:00,
2013-02-25 13:00:00,38.1,26.6,30.21,ENE,64,5.0,5.0,63,0.00,,,0.00,Wunderground v.1.15,2013-02-25 18:00:00,
2013-02-25 13:06:00,38.3,26.4,30.21,NNW,348,3.0,5.0,62,0.00,,,0.00,Wunderground v.1.15,2013-02-25 18:06:00,
2013-02-25 13:12:00,39.4,27.5,30.21,ENE,61,3.0,4.0,62,0.00,,,0.00,Wunderground v.1.15,2013-02-25 18:12:00,
2013-02-25 13:18:00,39.3,27.4,30.20,ESE,103,5.0,8.0,62,0.00,,,0.00,Wunderground v.1.15,2013-02-25 18:18:00,
2013-02-25 13:24:00,39.6,27.6,30.20,ESE,118,3.0,4.0,62,0.00,,,0.00,Wunderground v.1.15,2013-02-25 18:24:00,
2013-02-25 13:30:00,39.6,27.2,30.19,WNW,287,2.0,4.0,61,0.00,,,0.00,Wunderground v.1.15,2013-02-25 18:30:00,
2013-02-25 13:36:00,39.9,27.1,30.19,NW,309,3.0,10.0,60,0.00,,,0.00,Wunderground v.1.15,2013-02-25 18:36:00,
2013-02-25 13:42:00,40.1,27.7,30.19,NNW,333,4.0,10.0,61,0.00,,,0.00,Wunderground v.1.15,2013-02-25 18:42:00,
2013-02-25 13:47:00,40.3,27.9,30.18,South,177,3.0,10.0,61,0.00,,,0.00,Wunderground v.1.15,2013-02-25 18:47:00,
2013-02-25 13:52:00,40.7,27.5,30.18,SE,142,4.0,10.0,59,0.00,,,0.00,Wunderground v.1.15,2013-02-25 18:52:00,
2013-02-25 13:57:00,40.0,26.8,30.18,NNW,346,5.0,10.0,59,0.00,,,0.00,Wunderground v.1.15,2013-02-25 18:57:00,
2013-02-25 14:02:00,39.7,27.7,30.17,WNW,294,5.0,6.0,62,0.00,,,0.00,Wunderground v.1.15,2013-02-25 19:02:00,
2013-02-25 14:09:00,39.8,26.6,30.18,ESE,110,5.0,5.0,59,0.00,,,0.00,Wunderground v.1.15,2013-02-25 19:09:00,
2013-02-25 14:14:00,40.1,27.3,30.18,SE,146,4.0,8.0,60,0.00,,,0.00,Wunderground v.1.15,2013-02-25 19:14:00,
2013-02-25 14:19:00,39.9,27.5,30.18,WSW,253,2.0,3.0,61,0.00,,,0.00,Wunderground v.1.15,2013-02-25 19:19:00,
2013-02-25 14:24:00,40.5,27.7,30.18,ENE,76,3.0,5.0,60,0.00,,,0.00,Wunderground v.1.15,2013-02-25 19:24:00,
2013-02-25 14:29:00,40.6,28.2,30.18,NE,54,4.0,4.0,61,0.00,,,0.00,Wunderground v.1.15,2013-02-25 19:29:00,
2013-02-25 14:34:00,40.6,27.4,30.18,NE,43,3.0,4.0,59,0.00,,,0.00,Wunderground v.1.15,2013-02-25 19:34:00,
2013-02-25 14:40:00,40.8,28.4,30.18,West,280,3.0,3.0,61,0.00,,,0.00,Wunderground v.1.15,2013-02-25 19:40:00,
2013-02-25 14:46:00,40.8,27.2,30.17,NW,321,3.0,3.0,58,0.00,,,0.00,Wunderground v.1.15,2013-02-25 19:46:00,
2013-02-25 14:51:00,41.1,29.1,30.17,ESE,102,4.0,5.0,62,0.00,,,0.00,Wunderground v.1.15,2013-02-25 19:51:00,
2013-02-25 14:56:00,41.3,28.0,30.17,East,92,5.0,10.0,59,0.00,,,0.00,Wunderground v.1.15,2013-02-25 19:56:00,
2013-02-25 15:01:00,41.2,28.4,30.17,South,172,5.0,5.0,60,0.00,,,0.00,Wunderground v.1.15,2013-02-25 20:01:00,
2013-02-25 15:06:00,41.4,28.9,30.17,NE,56,3.0,6.0,61,0.00,,,0.00,Wunderground v.1.15,2013-02-25 20:06:00,
2013-02-25 15:12:00,41.5,27.8,30.17,ESE,123,2.0,5.0,58,0.00,,,0.00,Wunderground v.1.15,2013-02-25 20:12:00,
2013-02-25 15:17:00,41.4,28.5,30.17,North,9,2.0,5.0,60,0.00,,,0.00,Wunderground v.1.15,2013-02-25 20:17:00,
2013-02-25 15:22:00,41.1,27.4,30.16,NE,36,2.0,2.0,58,0.00,,,0.00,Wunderground v.1.15,2013-02-25 20:22:00,
2013-02-25 15:28:00,41.6,28.7,30.17,WSW,250,2.0,4.0,60,0.00,,,0.00,Wunderground v.1.15,2013-02-25 20:28:00,
2013-02-25 15:33:00,41.6,27.5,30.17,East,92,2.0,3.0,57,0.00,,,0.00,Wunderground v.1.15,2013-02-25 20:33:00,
2013-02-25 15:38:00,41.7,27.6,30.16,SSE,158,3.0,5.0,57,0.00,,,0.00,Wunderground v.1.15,2013-02-25 20:38:00,
2013-02-25 15:44:00,41.3,27.6,30.17,East,81,3.0,3.0,58,0.00,,,0.00,Wunderground v.1.15,2013-02-25 20:44:00,
2013-02-25 15:49:00,41.4,28.1,30.17,ESE,115,2.0,8.0,59,0.00,,,0.00,Wunderground v.1.15,2013-02-25 20:49:00,
2013-02-25 15:55:00,41.8,28.5,30.17,SE,134,3.0,7.0,59,0.00,,,0.00,Wunderground v.1.15,2013-02-25 20:55:00,
2013-02-25 16:02:00,41.6,28.3,30.17,East,80,3.0,3.0,59,0.00,,,0.00,Wunderground v.1.15,2013-02-25 21:02:00,
2013-02-25 16:07:00,41.4,27.3,30.16,South,172,2.0,4.0,57,0.00,,,0.00,Wunderground v.1.15,2013-02-25 21:07:00,
2013-02-25 16:12:00,41.4,28.5,30.16,NW,321,1.0,1.0,60,0.00,,,0.00,Wunderground v.1.15,2013-02-25 21:12:00,
2013-02-25 16:17:00,41.3,28.4,30.16,ESE,110,1.0,7.0,60,0.00,,,0.00,Wunderground v.1.15,2013-02-25 21:17:00,
2013-02-25 16:22:00,41.4,27.7,30.16,SSE,161,3.0,3.0,58,0.00,,,0.00,Wunderground v.1.15,2013-02-25 21:22:00,
2013-02-25 16:28:00,41.1,27.4,30.16,South,169,2.0,6.0,58,0.00,,,0.00,Wunderground v.1.15,2013-02-25 21:28:00,
2013-02-25 16:33:00,40.9,27.2,30.16,East,88,1.0,9.0,58,0.00,,,0.00,Wunderground v.1.15,2013-02-25 21:33:00,
2013-02-25 16:38:00,40.7,27.1,30.15,East,101,2.0,9.0,58,0.00,,,0.00,Wunderground v.1.15,2013-02-25 21:38:00,
2013-02-25 16:44:00,40.6,27.4,30.16,SW,215,2.0,9.0,59,0.00,,,0.00,Wunderground v.1.15,2013-02-25 21:44:00,
2013-02-25 16:50:00,40.5,26.9,30.15,NW,318,1.0,9.0,58,0.00,,,0.00,Wunderground v.1.15,2013-02-25 21:50:00,
2013-02-25 16:55:00,40.5,27.3,30.15,ESE,119,2.0,9.0,59,0.00,,,0.00,Wunderground v.1.15,2013-02-25 21:55:00,
2013-02-25 17:01:00,40.5,27.3,30.15,NE,51,1.0,2.0,59,0.00,,,0.00,Wunderground v.1.15,2013-02-25 22:01:00,
2013-02-25 17:06:00,40.5,26.9,30.15,NW,321,2.0,9.0,58,0.00,,,0.00,Wunderground v.1.15,2013-02-25 22:06:00,
2013-02-25 17:11:00,40.3,27.5,30.15,NNW,331,3.0,3.0,60,0.00,,,0.00,Wunderground v.1.15,2013-02-25 22:11:00,
2013-02-25 17:16:00,40.0,27.2,30.15,WNW,299,2.0,5.0,60,0.00,,,0.00,Wunderground v.1.15,2013-02-25 22:16:00,
2013-02-25 17:21:00,39.7,26.9,30.15,NNW,344,2.0,2.0,60,0.00,,,0.00,Wunderground v.1.15,2013-02-25 22:21:00,
2013-02-25 17:27:00,39.5,27.5,30.15,NNW,348,1.0,2.0,62,0.00,,,0.00,Wunderground v.1.15,2013-02-25 22:27:00,
2013-02-25 17:32:00,39.3,27.4,30.15,NNW,348,0.0,8.0,62,0.00,,,0.00,Wunderground v.1.15,2013-02-25 22:32:00,
2013-02-25 17:37:00,39.3,27.0,30.15,North,351,1.0,8.0,61,0.00,,,0.00,Wunderground v.1.15,2013-02-25 22:37:00,
2013-02-25 17:42:00,39.3,27.4,30.15,NNW,336,1.0,8.0,62,0.00,,,0.00,Wunderground v.1.15,2013-02-25 22:42:00,
2013-02-25 17:47:00,39.0,27.1,30.14,NNW,333,1.0,8.0,62,0.00,,,0.00,Wunderground v.1.15,2013-02-25 22:47:00,
2013-02-25 17:53:00,38.4,26.9,30.14,NW,306,0.0,8.0,63,0.00,,,0.00,Wunderground v.1.15,2013-02-25 22:53:00,
2013-02-25 17:58:00,38.2,26.7,30.14,NW,325,1.0,8.0,63,0.00,,,0.00,Wunderground v.1.15,2013-02-25 22:58:00,
2013-02-25 18:03:00,37.7,27.0,30.14,NW,325,1.0,1.0,65,0.00,,,0.00,Wunderground v.1.15,2013-02-25 23:03:00,
2013-02-25 18:08:00,37.2,26.5,30.14,NW,325,1.0,2.0,65,0.00,,,0.00,Wunderground v.1.15,2013-02-25 23:08:00,
2013-02-25 18:14:00,36.7,26.4,30.14,North,355,0.0,1.0,66,0.00,,,0.00,Wunderground v.1.15,2013-02-25 23:14:00,
2013-02-25 18:20:00,36.2,26.3,30.15,North,355,0.0,0.0,67,0.00,,,0.00,Wunderground v.1.15,2013-02-25 23:20:00,
2013-02-25 18:26:00,35.7,25.8,30.15,North,355,0.0,0.0,67,0.00,,,0.00,Wunderground v.1.15,2013-02-25 23:26:00,
2013-02-25 18:32:00,34.7,25.9,30.15,North,355,0.0,10.0,70,0.00,,,0.00,Wunderground v.1.15,2013-02-25 23:32:00,
2013-02-25 18:38:00,33.6,25.2,30.15,North,355,0.0,10.0,71,0.00,,,0.00,Wunderground v.1.15,2013-02-25 23:38:00,
2013-02-25 18:43:00,32.7,25.0,30.15,North,355,0.0,10.0,73,0.00,,,0.00,Wunderground v.1.15,2013-02-25 23:43:00,
2013-02-25 18:48:00,32.1,25.1,30.15,North,355,0.0,10.0,75,0.00,,,0.00,Wunderground v.1.15,2013-02-25 23:48:00,
2013-02-25 18:54:00,31.4,24.7,30.16,North,355,0.0,10.0,76,0.00,,,0.00,Wunderground v.1.15,2013-02-25 23:54:00,
2013-02-25 19:01:00,30.6,24.2,30.15,North,355,0.0,0.0,77,0.00,,,0.00,Wunderground v.1.15,2013-02-26 00:01:00,
2013-02-25 19:06:00,30.1,24.4,30.15,North,355,0.0,0.0,79,0.00,,,0.00,Wunderground v.1.15,2013-02-26 00:06:00,
2013-02-25 19:12:00,29.8,24.1,30.16,North,355,0.0,0.0,79,0.00,,,0.00,Wunderground v.1.15,2013-02-26 00:12:00,
2013-02-25 19:17:00,29.5,24.1,30.16,North,355,0.0,0.0,80,0.00,,,0.00,Wunderground v.1.15,2013-02-26 00:17:00,
2013-02-25 19:22:00,29.2,23.8,30.15,North,355,0.0,0.0,80,0.00,,,0.00,Wunderground v.1.15,2013-02-26 00:22:00,
2013-02-25 19:28:00,28.8,24.0,30.15,North,355,0.0,0.0,82,0.00,,,0.00,Wunderground v.1.15,2013-02-26 00:28:00,
2013-02-25 19:33:00,28.6,23.5,30.15,North,355,0.0,3.0,81,0.00,,,0.00,Wunderground v.1.15,2013-02-26 00:33:00,
2013-02-25 19:39:00,28.2,23.4,30.15,North,355,0.0,3.0,82,0.00,,,0.00,Wunderground v.1.15,2013-02-26 00:39:00,
2013-02-25 19:44:00,28.1,23.6,30.15,North,355,0.0,3.0,83,0.00,,,0.00,Wunderground v.1.15,2013-02-26 00:44:00,
2013-02-25 19:50:00,27.9,23.4,30.15,North,355,0.0,3.0,83,0.00,,,0.00,Wunderground v.1.15,2013-02-26 00:50:00,
2013-02-25 19:55:00,27.6,23.1,30.15,North,355,0.0,3.0,83,0.00,,,0.00,Wunderground v.1.15,2013-02-26 00:55:00,
2013-02-25 20:01:00,27.5,23.3,30.15,North,355,0.0,0.0,84,0.00,,,0.00,Wunderground v.1.15,2013-02-26 01:01:00,
2013-02-25 20:06:00,27.4,23.2,30.15,North,355,0.0,0.0,84,0.00,,,0.00,Wunderground v.1.15,2013-02-26 01:06:00,
2013-02-25 20:11:00,27.1,22.9,30.15,North,355,0.0,0.0,84,0.00,,,0.00,Wunderground v.1.15,2013-02-26 01:11:00,
2013-02-25 20:16:00,27.0,23.1,30.14,North,355,0.0,0.0,85,0.00,,,0.00,Wunderground v.1.15,2013-02-26 01:16:00,
2013-02-25 20:21:00,26.8,22.9,30.14,North,355,0.0,0.0,85,0.00,,,0.00,Wunderground v.1.15,2013-02-26 01:21:00,
2013-02-25 20:27:00,26.6,22.7,30.14,North,355,0.0,0.0,85,0.00,,,0.00,Wunderground v.1.15,2013-02-26 01:27:00,
2013-02-25 20:33:00,26.4,22.5,30.13,North,355,0.0,0.0,85,0.00,,,0.00,Wunderground v.1.15,2013-02-26 01:33:00,
2013-02-25 20:38:00,26.3,22.7,30.14,North,355,0.0,0.0,86,0.00,,,0.00,Wunderground v.1.15,2013-02-26 01:38:00,
2013-02-25 20:43:00,26.5,22.9,30.14,North,355,0.0,0.0,86,0.00,,,0.00,Wunderground v.1.15,2013-02-26 01:43:00,
2013-02-25 20:48:00,26.4,22.8,30.13,North,355,0.0,0.0,86,0.00,,,0.00,Wunderground v.1.15,2013-02-26 01:48:00,
2013-02-25 20:54:00,26.4,23.1,30.14,North,355,0.0,1.0,87,0.00,,,0.00,Wunderground v.1.15,2013-02-26 01:54:00,
2013-02-25 20:59:00,26.3,23.0,30.14,North,355,0.0,1.0,87,0.00,,,0.00,Wunderground v.1.15,2013-02-26 01:59:00,
2013-02-25 21:05:00,26.2,22.9,30.13,North,355,0.0,0.0,87,0.00,,,0.00,Wunderground v.1.15,2013-02-26 02:05:00,
2013-02-25 21:10:00,26.2,22.9,30.13,North,355,0.0,0.0,87,0.00,,,0.00,Wunderground v.1.15,2013-02-26 02:10:00,
2013-02-25 21:15:00,26.2,22.9,30.13,North,355,0.0,0.0,87,0.00,,,0.00,Wunderground v.1.15,2013-02-26 02:15:00,
2013-02-25 21:20:00,26.2,22.9,30.12,North,355,0.0,0.0,87,0.00,,,0.00,Wunderground v.1.15,2013-02-26 02:20:00,
2013-02-25 21:26:00,26.1,22.8,30.12,North,355,0.0,0.0,87,0.00,,,0.00,Wunderground v.1.15,2013-02-26 02:26:00,
2013-02-25 21:31:00,26.0,22.7,30.11,North,355,0.0,0.0,87,0.00,,,0.00,Wunderground v.1.15,2013-02-26 02:31:00,
2013-02-25 21:36:00,25.8,22.5,30.10,North,355,0.0,0.0,87,0.00,,,0.00,Wunderground v.1.15,2013-02-26 02:36:00,
2013-02-25 21:41:00,25.8,22.7,30.10,North,355,0.0,0.0,88,0.00,,,0.00,Wunderground v.1.15,2013-02-26 02:41:00,
2013-02-25 21:46:00,25.6,22.5,30.09,North,355,0.0,0.0,88,0.00,,,0.00,Wunderground v.1.15,2013-02-26 02:46:00,
2013-02-25 21:51:00,25.5,22.4,30.08,North,355,0.0,0.0,88,0.00,,,0.00,Wunderground v.1.15,2013-02-26 02:51:00,
2013-02-25 21:56:00,25.3,22.2,30.08,North,355,0.0,1.0,88,0.00,,,0.00,Wunderground v.1.15,2013-02-26 02:56:00,
2013-02-25 22:01:00,25.3,22.2,30.09,North,355,0.0,0.0,88,0.00,,,0.00,Wunderground v.1.15,2013-02-26 03:01:00,
2013-02-25 22:06:00,25.4,22.3,30.08,North,355,0.0,0.0,88,0.00,,,0.00,Wunderground v.1.15,2013-02-26 03:06:00,
2013-02-25 22:11:00,25.4,22.3,30.09,North,355,0.0,0.0,88,0.00,,,0.00,Wunderground v.1.15,2013-02-26 03:11:00,
2013-02-25 22:16:00,25.5,22.7,30.08,North,355,0.0,0.0,89,0.00,,,0.00,Wunderground v.1.15,2013-02-26 03:16:00,
2013-02-25 22:22:00,25.5,22.7,30.09,North,355,0.0,0.0,89,0.00,,,0.00,Wunderground v.1.15,2013-02-26 03:22:00,
2013-02-25 22:28:00,25.5,22.4,30.09,North,355,0.0,0.0,88,0.00,,,0.00,Wunderground v.1.15,2013-02-26 03:28:00,
2013-02-25 22:33:00,25.5,22.4,30.10,North,355,0.0,0.0,88,0.00,,,0.00,Wunderground v.1.15,2013-02-26 03:33:00,
2013-02-25 22:38:00,25.6,22.5,30.10,North,355,0.0,2.0,88,0.00,,,0.00,Wunderground v.1.15,2013-02-26 03:38:00,
2013-02-25 22:43:00,25.6,22.5,30.10,North,355,0.0,0.0,88,0.00,,,0.00,Wunderground v.1.15,2013-02-26 03:43:00,
2013-02-25 22:48:00,25.5,22.4,30.11,North,355,0.0,0.0,88,0.00,,,0.00,Wunderground v.1.15,2013-02-26 03:48:00,
2013-02-25 22:53:00,25.6,22.5,30.11,North,355,0.0,0.0,88,0.00,,,0.00,Wunderground v.1.15,2013-02-26 03:53:00,
2013-02-25 22:58:00,25.4,22.3,30.11,North,355,0.0,0.0,88,0.00,,,0.00,Wunderground v.1.15,2013-02-26 03:58:00,
2013-02-25 23:04:00,25.4,22.3,30.11,North,355,0.0,0.0,88,0.00,,,0.00,Wunderground v.1.15,2013-02-26 04:04:00,
2013-02-25 23:09:00,25.3,22.0,30.10,North,355,0.0,0.0,87,0.00,,,0.00,Wunderground v.1.15,2013-02-26 04:09:00,
2013-02-25 23:14:00,25.0,21.7,30.10,North,355,0.0,0.0,87,0.00,,,0.00,Wunderground v.1.15,2013-02-26 04:14:00,
2013-02-25 23:20:00,24.7,21.7,30.11,North,355,0.0,0.0,88,0.00,,,0.00,Wunderground v.1.15,2013-02-26 04:20:00,
2013-02-25 23:25:00,24.6,21.6,30.10,North,355,0.0,0.0,88,0.00,,,0.00,Wunderground v.1.15,2013-02-26 04:25:00,
2013-02-25 23:30:00,24.4,21.4,30.10,North,355,0.0,0.0,88,0.00,,,0.00,Wunderground v.1.15,2013-02-26 04:30:00,
2013-02-25 23:35:00,24.3,21.3,30.10,North,355,0.0,0.0,88,0.00,,,0.00,Wunderground v.1.15,2013-02-26 04:35:00,
2013-02-25 23:40:00,24.2,21.2,30.09,North,355,0.0,0.0,88,0.00,,,0.00,Wunderground v.1.15,2013-02-26 04:40:00,
2013-02-25 23:45:00,23.9,21.1,30.09,North,355,0.0,0.0,89,0.00,,,0.00,Wunderground v.1.15,2013-02-26 04:45:00,
2013-02-25 23:50:00,23.8,21.0,30.09,North,355,0.0,0.0,89,0.00,,,0.00,Wunderground v.1.15,2013-02-26 04:50:00,
2013-02-25 23:56:00,23.7,20.9,30.08,North,355,0.0,0.0,89,0.00,,,0.00,Wunderground v.1.15,2013-02-26 04:56:00,